| time (UTC) | temp F | wind direction | speed knots | gust knots | rain 1hr in | rain 24hr in | rain mn in | humidity % | barometer mb |
| 20260507133001 | 68 | 333 | 0.0 | 0.0 | 0.00 | 0.00 | 0.00 | 72 | 323.4 |
| 20260507132455 | 68 | 306 | 0.0 | 0.0 | 0.00 | 0.00 | 0.00 | 72 | 323.4 |
| 20260507131949 | 68 | 306 | 0.9 | 0.0 | 0.00 | 0.00 | 0.00 | 72 | 323.5 |
| 20260507131443 | 68 | 303 | 0.0 | 0.0 | 0.00 | 0.00 | 0.00 | 73 | 323.5 |
| 20260507130937 | 67 | 299 | 0.0 | 0.0 | 0.00 | 0.00 | 0.00 | 73 | 323.5 |
| 20260507130432 | 67 | 310 | 0.0 | 0.0 | 0.00 | 0.00 | 0.00 | 74 | 323.6 |
| 20260507125925 | 67 | 305 | 0.0 | 0.0 | 0.00 | 0.00 | 0.00 | 73 | 323.6 |
| 20260507125419 | 66 | 265 | 0.0 | 0.0 | 0.00 | 0.00 | 0.00 | 74 | 323.6 |
| 20260507124913 | 66 | 260 | 0.0 | 0.0 | 0.00 | 0.00 | 0.00 | 72 | 323.6 |
| 20260507124407 | 66 | 255 | 0.0 | 0.0 | 0.00 | 0.00 | 0.00 | 73 | 323.5 |
| 20260507123901 | 66 | 325 | 0.0 | 0.0 | 0.00 | 0.00 | 0.00 | 74 | 323.5 |
| 20260507123355 | 66 | 89 | 0.9 | 0.0 | 0.00 | 0.00 | 0.00 | 76 | 323.5 |
| 20260507122849 | 65 | 140 | 0.9 | 0.0 | 0.00 | 0.00 | 0.00 | 77 | 323.6 |
| 20260507122343 | 65 | 103 | 1.7 | 0.0 | 0.00 | 0.00 | 0.00 | 77 | 323.8 |
| 20260507121837 | 65 | 32 | 0.9 | 0.0 | 0.00 | 0.00 | 0.00 | 76 | 323.9 |
| 20260507121331 | 64 | 303 | 0.0 | 0.0 | 0.00 | 0.00 | 0.00 | 77 | 323.9 |
| 20260507120825 | 65 | 243 | 0.0 | 0.0 | 0.00 | 0.00 | 0.00 | 78 | 323.9 |
| 20260507120319 | 64 | 216 | 0.0 | 0.0 | 0.00 | 0.00 | 0.00 | 78 | 324.0 |
| 20260507115813 | 64 | 218 | 0.0 | 0.0 | 0.00 | 0.00 | 0.00 | 76 | 324.0 |
| 20260507115307 | 64 | 211 | 0.0 | 0.0 | 0.00 | 0.00 | 0.00 | 76 | 324.0 |
| 20260507114801 | 64 | 184 | 0.0 | 0.0 | 0.00 | 0.00 | 0.00 | 74 | 324.0 |
| 20260507114255 | 64 | 176 | 0.9 | 0.0 | 0.00 | 0.00 | 0.00 | 73 | 324.0 |
| 20260507113749 | 65 | 171 | 2.6 | 0.0 | 0.00 | 0.00 | 0.00 | 72 | 323.9 |
| 20260507113243 | 65 | 167 | 0.0 | 0.0 | 0.00 | 0.00 | 0.00 | 71 | 323.9 |
| 20260507112737 | 66 | 169 | 0.0 | 0.0 | 0.00 | 0.00 | 0.00 | 71 | 323.8 |
| 20260507112231 | 66 | 170 | 0.0 | 0.0 | 0.00 | 0.00 | 0.00 | 70 | 323.8 |
| 20260507111725 | 67 | 183 | 0.0 | 0.0 | 0.00 | 0.00 | 0.00 | 69 | 323.8 |
| 20260507111219 | 67 | 186 | 0.0 | 0.0 | 0.00 | 0.00 | 0.00 | 68 | 323.7 |
| 20260507110713 | 68 | 184 | 0.0 | 0.0 | 0.00 | 0.00 | 0.00 | 67 | 323.7 |
| 20260507110207 | 68 | 194 | 0.0 | 0.0 | 0.00 | 0.00 | 0.00 | 66 | 323.7 |
| 20260507105701 | 68 | 188 | 0.0 | 0.0 | 0.00 | 0.00 | 0.00 | 63 | 323.7 |
| 20260507105155 | 68 | 197 | 0.0 | 0.0 | 0.00 | 0.00 | 0.00 | 62 | 323.7 |
| 20260507104649 | 69 | 197 | 0.0 | 0.0 | 0.00 | 0.00 | 0.00 | 59 | 323.7 |
| 20260507104143 | 69 | 178 | 0.9 | 0.0 | 0.00 | 0.00 | 0.00 | 58 | 323.6 |
| 20260507103637 | 69 | 192 | 0.9 | 0.0 | 0.00 | 0.00 | 0.00 | 57 | 323.6 |
| 20260507103131 | 69 | 232 | 0.0 | 0.0 | 0.00 | 0.00 | 0.00 | 57 | 323.6 |
| 20260507102625 | 69 | 277 | 0.0 | 0.0 | 0.00 | 0.00 | 0.00 | 56 | 323.6 |
| 20260507102119 | 69 | 304 | 0.0 | 0.0 | 0.00 | 0.00 | 0.00 | 56 | 323.6 |
| 20260507101613 | 69 | 357 | 0.9 | 0.0 | 0.00 | 0.00 | 0.00 | 57 | 323.5 |
| 20260507101107 | 69 | 24 | 0.9 | 0.0 | 0.00 | 0.00 | 0.00 | 57 | 323.5 |
| 20260507100601 | 69 | 0 | 0.9 | 0.0 | 0.00 | 0.00 | 0.00 | 57 | 323.5 |
| 20260507100055 | 70 | 312 | 0.0 | 0.0 | 0.00 | 0.00 | 0.00 | 56 | 323.5 |
| 20260507095549 | 70 | 282 | 0.9 | 0.0 | 0.00 | 0.00 | 0.00 | 56 | 323.4 |
| 20260507095043 | 70 | 305 | 0.9 | 0.0 | 0.00 | 0.00 | 0.00 | 56 | 323.4 |
| 20260507094537 | 71 | 344 | 0.9 | 0.0 | 0.00 | 0.00 | 0.00 | 57 | 323.3 |
| 20260507094031 | 71 | 26 | 1.7 | 0.0 | 0.00 | 0.00 | 0.00 | 58 | 323.3 |
| 20260507093525 | 71 | 358 | 0.0 | 0.0 | 0.00 | 0.00 | 0.00 | 58 | 323.3 |
| 20260507093019 | 71 | 334 | 0.0 | 0.0 | 0.00 | 0.00 | 0.00 | 57 | 323.3 |
| 20260507092513 | 71 | 17 | 0.0 | 0.0 | 0.00 | 0.00 | 0.00 | 56 | 323.3 |
| 20260507092007 | 70 | 48 | 0.0 | 0.0 | 0.00 | 0.00 | 0.00 | 58 | 323.4 |
| 20260507091501 | 70 | 341 | 0.0 | 0.0 | 0.00 | 0.00 | 0.00 | 58 | 323.4 |
| 20260507090955 | 70 | 291 | 0.0 | 0.0 | 0.00 | 0.00 | 0.00 | 55 | 323.5 |
| 20260507090449 | 71 | 291 | 0.0 | 0.0 | 0.00 | 0.00 | 0.00 | 55 | 323.4 |
| 20260507085943 | 71 | 290 | 0.0 | 0.0 | 0.00 | 0.00 | 0.00 | 57 | 323.4 |
| 20260507085437 | 71 | 325 | 0.0 | 0.0 | 0.00 | 0.00 | 0.00 | 57 | 323.4 |
| 20260507084931 | 71 | 358 | 0.0 | 0.0 | 0.00 | 0.00 | 0.00 | 57 | 323.4 |
| 20260507084425 | 71 | 2 | 0.0 | 0.0 | 0.00 | 0.00 | 0.00 | 58 | 323.5 |
| 20260507083919 | 71 | 315 | 0.0 | 0.0 | 0.00 | 0.00 | 0.00 | 57 | 323.5 |
| 20260507083413 | 71 | 302 | 0.0 | 0.0 | 0.00 | 0.00 | 0.00 | 57 | 323.5 |
| 20260507082907 | 71 | 302 | 0.0 | 0.0 | 0.00 | 0.00 | 0.00 | 56 | 323.5 |
| 20260507082401 | 71 | 319 | 0.0 | 0.0 | 0.00 | 0.00 | 0.00 | 55 | 323.5 |
| 20260507081855 | 71 | 20 | 0.0 | 0.0 | 0.00 | 0.00 | 0.00 | 56 | 323.4 |
| 20260507081349 | 71 | 112 | 0.0 | 0.0 | 0.00 | 0.00 | 0.00 | 56 | 323.5 |
| 20260507080843 | 71 | 116 | 0.9 | 0.0 | 0.00 | 0.00 | 0.00 | 55 | 323.5 |
| 20260507080337 | 71 | 78 | 0.0 | 0.0 | 0.00 | 0.00 | 0.00 | 56 | 323.5 |
| 20260507075831 | 71 | 117 | 0.0 | 0.0 | 0.00 | 0.00 | 0.00 | 56 | 323.6 |
| 20260507075325 | 71 | 26 | 0.9 | 0.0 | 0.00 | 0.00 | 0.00 | 54 | 323.6 |
| 20260507074819 | 71 | 314 | 0.0 | 0.0 | 0.00 | 0.00 | 0.00 | 54 | 323.6 |
| 20260507074313 | 71 | 300 | 0.0 | 0.0 | 0.00 | 0.00 | 0.00 | 53 | 323.6 |
| 20260507073807 | 71 | 21 | 0.0 | 0.0 | 0.00 | 0.00 | 0.00 | 53 | 323.6 |
| 20260507073301 | 71 | 45 | 0.0 | 0.0 | 0.00 | 0.00 | 0.00 | 51 | 323.6 |
| 20260507072755 | 71 | 352 | 0.0 | 0.0 | 0.00 | 0.00 | 0.00 | 52 | 323.6 |
| 20260507072249 | 71 | 55 | 0.9 | 0.0 | 0.00 | 0.00 | 0.00 | 53 | 323.6 |
| 20260507071743 | 70 | 177 | 0.0 | 0.0 | 0.00 | 0.00 | 0.00 | 54 | 323.7 |
| 20260507071237 | 70 | 108 | 0.0 | 0.0 | 0.00 | 0.00 | 0.00 | 55 | 323.7 |
| 20260507070731 | 70 | 5 | 0.0 | 0.0 | 0.00 | 0.00 | 0.00 | 54 | 323.8 |
| 20260507070225 | 70 | 338 | 0.0 | 0.0 | 0.00 | 0.00 | 0.00 | 54 | 323.8 |
| 20260507065719 | 71 | 358 | 0.0 | 0.0 | 0.00 | 0.00 | 0.00 | 54 | 323.8 |
| 20260507065213 | 70 | 33 | 0.0 | 0.0 | 0.00 | 0.00 | 0.00 | 53 | 323.8 |
| 20260507064707 | 70 | 40 | 0.0 | 0.0 | 0.00 | 0.00 | 0.00 | 55 | 323.9 |
| 20260507064201 | 70 | 86 | 0.0 | 0.0 | 0.00 | 0.00 | 0.00 | 57 | 323.9 |
| 20260507063655 | 70 | 199 | 0.0 | 0.0 | 0.00 | 0.00 | 0.00 | 58 | 324.0 |
| 20260507063149 | 69 | 155 | 0.0 | 0.0 | 0.00 | 0.00 | 0.00 | 61 | 324.1 |
| 20260507062643 | 69 | 314 | 0.0 | 0.0 | 0.00 | 0.00 | 0.00 | 63 | 324.2 |
| 20260507062137 | 69 | 174 | 0.0 | 0.0 | 0.00 | 0.00 | 0.00 | 63 | 324.3 |
| 20260507061631 | 68 | 288 | 0.0 | 0.0 | 0.00 | 0.00 | 0.00 | 64 | 324.3 |
| 20260507061126 | 68 | 197 | 0.0 | 0.0 | 0.00 | 0.00 | 0.00 | 64 | 324.4 |
| 20260507060619 | 68 | 195 | 0.0 | 0.0 | 0.00 | 0.00 | 0.00 | 65 | 324.5 |
| 20260507060113 | 68 | 161 | 0.0 | 0.0 | 0.00 | 0.00 | 0.00 | 64 | 324.6 |
| 20260507055607 | 67 | 135 | 0.0 | 0.0 | 0.00 | 0.00 | 0.00 | 63 | 324.6 |
| 20260507055101 | 67 | 114 | 0.0 | 0.0 | 0.00 | 0.00 | 0.00 | 62 | 324.7 |
| 20260507054555 | 66 | 94 | 0.0 | 0.0 | 0.00 | 0.00 | 0.00 | 65 | 324.7 |
| 20260507054049 | 65 | 72 | 0.0 | 0.0 | 0.00 | 0.00 | 0.00 | 65 | 324.8 |
| 20260507053543 | 65 | 60 | 0.0 | 0.0 | 0.00 | 0.00 | 0.00 | 66 | 324.9 |
| 20260507053037 | 65 | 44 | 0.0 | 0.0 | 0.00 | 0.00 | 0.00 | 66 | 324.9 |
| 20260507052531 | 64 | 32 | 0.0 | 0.0 | 0.00 | 0.00 | 0.00 | 68 | 325.0 |
| 20260507052025 | 63 | 18 | 0.0 | 0.0 | 0.00 | 0.00 | 0.00 | 70 | 325.1 |
| 20260507051519 | 62 | 1 | 0.0 | 0.0 | 0.00 | 0.00 | 0.00 | 72 | 325.1 |
| 20260507051013 | 61 | 346 | 0.0 | 0.0 | 0.00 | 0.00 | 0.00 | 74 | 325.2 |
| 20260507050507 | 60 | 329 | 0.0 | 0.0 | 0.00 | 0.00 | 0.00 | 75 | 325.2 |
| 20260507050001 | 59 | 309 | 0.0 | 0.0 | 0.00 | 0.00 | 0.00 | 74 | 325.3 |
| 20260507045455 | 59 | 297 | 0.0 | 0.0 | 0.00 | 0.00 | 0.00 | 76 | 325.3 |
| 20260507044949 | 58 | 277 | 0.0 | 0.0 | 0.00 | 0.00 | 0.00 | 76 | 325.3 |
| 20260507044443 | 58 | 252 | 0.0 | 0.0 | 0.00 | 0.00 | 0.00 | 75 | 325.4 |
| 20260507043937 | 58 | 146 | 0.0 | 0.0 | 0.00 | 0.00 | 0.00 | 75 | 325.4 |
| 20260507043432 | 57 | 103 | 0.0 | 0.0 | 0.00 | 0.00 | 0.00 | 74 | 325.5 |
| 20260507042925 | 57 | 98 | 0.0 | 0.0 | 0.00 | 0.00 | 0.00 | 73 | 325.5 |
| 20260507042419 | 57 | 93 | 0.0 | 0.0 | 0.00 | 0.00 | 0.00 | 73 | 325.5 |
| 20260507041913 | 57 | 88 | 0.0 | 0.0 | 0.00 | 0.00 | 0.00 | 73 | 325.5 |
| 20260507041407 | 57 | 87 | 0.0 | 0.0 | 0.00 | 0.00 | 0.00 | 73 | 325.6 |
| 20260507040901 | 56 | 85 | 0.0 | 0.0 | 0.00 | 0.00 | 0.00 | 75 | 325.6 |
| 20260507040355 | 56 | 95 | 0.0 | 0.0 | 0.00 | 0.00 | 0.00 | 78 | 325.6 |
| 20260507035849 | 56 | 96 | 0.0 | 0.0 | 0.00 | 0.00 | 0.00 | 80 | 325.6 |
| 20260507035343 | 56 | 102 | 0.0 | 0.0 | 0.00 | 0.00 | 0.00 | 81 | 325.6 |
| 20260507034837 | 56 | 113 | 0.0 | 0.0 | 0.00 | 0.00 | 0.00 | 82 | 325.6 |
| 20260507034331 | 56 | 110 | 0.0 | 0.0 | 0.00 | 0.00 | 0.00 | 82 | 325.6 |
| 20260507033825 | 56 | 108 | 0.0 | 0.0 | 0.00 | 0.00 | 0.00 | 81 | 325.6 |
| 20260507033319 | 56 | 96 | 0.0 | 0.0 | 0.00 | 0.00 | 0.00 | 81 | 325.6 |
| 20260507032813 | 56 | 94 | 0.0 | 0.0 | 0.00 | 0.00 | 0.00 | 81 | 325.6 |
| 20260507032307 | 56 | 93 | 0.0 | 0.0 | 0.00 | 0.00 | 0.00 | 81 | 325.5 |
| 20260507031801 | 56 | 99 | 0.0 | 0.0 | 0.00 | 0.00 | 0.00 | 81 | 325.5 |
| 20260507031255 | 56 | 94 | 0.0 | 0.0 | 0.00 | 0.00 | 0.00 | 80 | 325.5 |
| 20260507030749 | 56 | 84 | 0.0 | 0.0 | 0.00 | 0.00 | 0.00 | 79 | 325.5 |
| 20260507030243 | 56 | 79 | 0.0 | 0.0 | 0.00 | 0.00 | 0.00 | 78 | 325.5 |
| 20260507025737 | 57 | 80 | 0.0 | 0.0 | 0.00 | 0.00 | 0.00 | 78 | 325.4 |
| 20260507025231 | 57 | 81 | 0.0 | 0.0 | 0.00 | 0.00 | 0.00 | 78 | 325.4 |
| 20260507024725 | 57 | 76 | 0.0 | 0.0 | 0.00 | 0.00 | 0.00 | 77 | 325.5 |
| 20260507024219 | 57 | 76 | 0.0 | 0.0 | 0.00 | 0.00 | 0.00 | 77 | 325.5 |
| 20260507023713 | 57 | 73 | 0.0 | 0.0 | 0.00 | 0.00 | 0.00 | 76 | 325.4 |
| 20260507023207 | 57 | 68 | 0.0 | 0.0 | 0.00 | 0.00 | 0.00 | 74 | 325.4 |
| 20260507022701 | 57 | 65 | 0.0 | 0.0 | 0.00 | 0.00 | 0.00 | 73 | 325.4 |
| 20260507022155 | 58 | 70 | 0.0 | 0.0 | 0.00 | 0.00 | 0.00 | 73 | 325.4 |
| 20260507021649 | 58 | 63 | 0.0 | 0.0 | 0.00 | 0.00 | 0.00 | 72 | 325.4 |
| 20260507021143 | 58 | 64 | 0.0 | 0.0 | 0.00 | 0.00 | 0.00 | 72 | 325.4 |
| 20260507020637 | 58 | 66 | 0.0 | 0.0 | 0.00 | 0.00 | 0.00 | 71 | 325.4 |
| 20260507020131 | 58 | 62 | 0.0 | 0.0 | 0.00 | 0.00 | 0.00 | 72 | 325.4 |
| 20260507015625 | 57 | 63 | 0.0 | 0.0 | 0.00 | 0.00 | 0.00 | 73 | 325.4 |
| 20260507015119 | 57 | 63 | 0.0 | 0.0 | 0.00 | 0.00 | 0.00 | 74 | 325.4 |
| 20260507014613 | 57 | 65 | 0.0 | 0.0 | 0.00 | 0.00 | 0.00 | 74 | 325.5 |
| 20260507014107 | 57 | 60 | 0.0 | 0.0 | 0.00 | 0.00 | 0.00 | 74 | 325.5 |
| 20260507013601 | 57 | 68 | 0.9 | 0.0 | 0.00 | 0.00 | 0.00 | 75 | 325.5 |
| 20260507013055 | 57 | 79 | 0.0 | 0.0 | 0.00 | 0.00 | 0.00 | 77 | 325.5 |
| 20260507012549 | 57 | 64 | 0.0 | 0.0 | 0.00 | 0.00 | 0.00 | 75 | 325.4 |
| 20260507012043 | 57 | 67 | 0.0 | 0.0 | 0.00 | 0.00 | 0.00 | 74 | 325.3 |
| 20260507011537 | 57 | 68 | 0.0 | 0.0 | 0.00 | 0.00 | 0.00 | 73 | 325.2 |
| 20260507010525 | 58 | 65 | 0.0 | 0.0 | 0.00 | 0.00 | 0.00 | 72 | 325.2 |
| 20260507010019 | 58 | 61 | 0.0 | 0.0 | 0.00 | 0.00 | 0.00 | 71 | 325.2 |
| 20260507005513 | 58 | 59 | 0.0 | 0.0 | 0.00 | 0.00 | 0.00 | 69 | 325.1 |
| 20260507005007 | 58 | 61 | 0.0 | 0.0 | 0.00 | 0.00 | 0.00 | 67 | 325.1 |
| 20260507004501 | 58 | 57 | 0.0 | 0.0 | 0.00 | 0.00 | 0.00 | 66 | 325.1 |
| 20260507003955 | 58 | 55 | 0.0 | 0.0 | 0.00 | 0.00 | 0.00 | 67 | 325.1 |
| 20260507003449 | 59 | 59 | 0.0 | 0.0 | 0.00 | 0.00 | 0.00 | 68 | 325.1 |
| 20260507002943 | 59 | 59 | 0.0 | 0.0 | 0.00 | 0.00 | 0.00 | 68 | 325.1 |
| 20260507002437 | 59 | 60 | 0.0 | 0.0 | 0.00 | 0.00 | 0.00 | 67 | 325.1 |
| 20260507001931 | 59 | 55 | 0.0 | 0.0 | 0.00 | 0.00 | 0.00 | 67 | 325.1 |
| 20260507001425 | 60 | 58 | 0.0 | 0.0 | 0.00 | 0.00 | 0.00 | 67 | 325.0 |
| 20260507000919 | 60 | 59 | 0.0 | 0.0 | 0.00 | 0.00 | 0.00 | 66 | 325.0 |
| 20260507000413 | 60 | 56 | 0.0 | 0.0 | 0.00 | 0.00 | 0.00 | 62 | 325.0 |
| 20260506235907 | 61 | 53 | 0.0 | 0.0 | 0.00 | 0.00 | 0.00 | 56 | 324.9 |
| 20260506235401 | 61 | 51 | 0.0 | 0.0 | 0.00 | 0.00 | 0.00 | 54 | 324.9 |
| 20260506234855 | 61 | 51 | 0.0 | 0.0 | 0.00 | 0.00 | 0.00 | 53 | 324.9 |
| 20260506234349 | 62 | 54 | 0.0 | 0.0 | 0.00 | 0.00 | 0.00 | 53 | 324.9 |
| 20260506233843 | 62 | 54 | 0.0 | 0.0 | 0.00 | 0.00 | 0.00 | 53 | 324.8 |
| 20260506233337 | 62 | 52 | 0.0 | 0.0 | 0.00 | 0.00 | 0.00 | 52 | 324.8 |
| 20260506232831 | 62 | 53 | 0.0 | 0.0 | 0.00 | 0.00 | 0.00 | 52 | 324.8 |
| 20260506232325 | 63 | 49 | 0.0 | 0.0 | 0.00 | 0.00 | 0.00 | 52 | 324.8 |
| 20260506231819 | 63 | 56 | 0.0 | 0.0 | 0.00 | 0.00 | 0.00 | 51 | 324.8 |
| 20260506231313 | 63 | 51 | 0.0 | 0.0 | 0.00 | 0.00 | 0.00 | 50 | 324.8 |
| 20260506230807 | 63 | 54 | 0.0 | 0.0 | 0.00 | 0.00 | 0.00 | 50 | 324.7 |
| 20260506230301 | 63 | 51 | 0.0 | 0.0 | 0.00 | 0.00 | 0.00 | 49 | 324.7 |
| 20260506225755 | 64 | 53 | 0.0 | 0.0 | 0.00 | 0.00 | 0.00 | 48 | 324.7 |
| 20260506225249 | 64 | 54 | 0.0 | 0.0 | 0.00 | 0.00 | 0.00 | 48 | 324.7 |
| 20260506224743 | 64 | 54 | 0.0 | 0.0 | 0.00 | 0.00 | 0.00 | 47 | 324.7 |
| 20260506224237 | 64 | 52 | 0.0 | 0.0 | 0.00 | 0.00 | 0.00 | 47 | 324.7 |
| 20260506223731 | 64 | 53 | 0.0 | 0.0 | 0.00 | 0.00 | 0.00 | 47 | 324.8 |
| 20260506223225 | 64 | 51 | 0.0 | 0.0 | 0.00 | 0.00 | 0.00 | 48 | 324.8 |
| 20260506222719 | 63 | 55 | 0.0 | 0.0 | 0.00 | 0.00 | 0.00 | 47 | 324.8 |
| 20260506222213 | 63 | 54 | 0.0 | 0.0 | 0.00 | 0.00 | 0.00 | 47 | 324.9 |
| 20260506221707 | 63 | 53 | 1.7 | 0.0 | 0.00 | 0.00 | 0.00 | 48 | 324.9 |
| 20260506221201 | 63 | 54 | 1.7 | 0.0 | 0.00 | 0.00 | 0.00 | 48 | 324.8 |
| 20260506220655 | 62 | 54 | 0.0 | 0.0 | 0.00 | 0.00 | 0.00 | 49 | 324.9 |
| 20260506220149 | 62 | 52 | 1.7 | 0.0 | 0.00 | 0.00 | 0.00 | 50 | 324.8 |
| 20260506215643 | 61 | 53 | 0.0 | 0.0 | 0.00 | 0.00 | 0.00 | 52 | 324.8 |
| 20260506215137 | 61 | 51 | 0.9 | 0.0 | 0.00 | 0.00 | 0.00 | 52 | 324.8 |
| 20260506214631 | 61 | 54 | 0.0 | 0.0 | 0.00 | 0.00 | 0.00 | 52 | 324.7 |
| 20260506214125 | 61 | 51 | 0.9 | 0.0 | 0.00 | 0.00 | 0.00 | 52 | 324.7 |
| 20260506213619 | 62 | 54 | 0.0 | 0.0 | 0.00 | 0.00 | 0.00 | 52 | 324.6 |
| 20260506213113 | 62 | 52 | 0.0 | 0.0 | 0.00 | 0.00 | 0.00 | 53 | 324.6 |
| 20260506212607 | 62 | 50 | 0.0 | 0.0 | 0.00 | 0.00 | 0.00 | 52 | 324.6 |
| 20260506212101 | 62 | 56 | 0.0 | 0.0 | 0.00 | 0.00 | 0.00 | 52 | 324.7 |
| 20260506211555 | 62 | 53 | 0.0 | 0.0 | 0.00 | 0.00 | 0.00 | 51 | 324.7 |
| 20260506211049 | 62 | 54 | 0.0 | 0.0 | 0.00 | 0.00 | 0.00 | 51 | 324.7 |
| 20260506210543 | 63 | 54 | 1.7 | 0.0 | 0.00 | 0.00 | 0.00 | 49 | 324.6 |
| 20260506210037 | 63 | 57 | 1.7 | 0.0 | 0.00 | 0.00 | 0.00 | 49 | 324.5 |
| 20260506205531 | 63 | 53 | 0.9 | 0.0 | 0.00 | 0.00 | 0.00 | 49 | 324.5 |
| 20260506205025 | 64 | 54 | 0.0 | 0.0 | 0.00 | 0.00 | 0.00 | 51 | 324.5 |
| 20260506204519 | 64 | 54 | 0.0 | 0.0 | 0.00 | 0.00 | 0.00 | 49 | 324.4 |
| 20260506204013 | 64 | 52 | 0.0 | 0.0 | 0.00 | 0.00 | 0.00 | 49 | 324.4 |
| 20260506203507 | 64 | 55 | 0.0 | 0.0 | 0.00 | 0.00 | 0.00 | 48 | 324.4 |
| 20260506203001 | 64 | 53 | 0.0 | 0.0 | 0.00 | 0.00 | 0.00 | 48 | 324.4 |
| 20260506202455 | 64 | 49 | 0.0 | 0.0 | 0.00 | 0.00 | 0.00 | 47 | 324.4 |
| 20260506201949 | 64 | 52 | 0.0 | 0.0 | 0.00 | 0.00 | 0.00 | 46 | 324.4 |
| 20260506201443 | 64 | 53 | 0.0 | 0.0 | 0.00 | 0.00 | 0.00 | 46 | 324.4 |
| 20260506200937 | 64 | 54 | 0.0 | 0.0 | 0.00 | 0.00 | 0.00 | 45 | 324.4 |
| 20260506200431 | 64 | 56 | 0.0 | 0.0 | 0.00 | 0.00 | 0.00 | 45 | 324.4 |
| 20260506195925 | 64 | 55 | 0.0 | 0.0 | 0.00 | 0.00 | 0.00 | 45 | 324.4 |
| 20260506195419 | 64 | 50 | 0.0 | 0.0 | 0.00 | 0.00 | 0.00 | 45 | 324.4 |
| 20260506194913 | 65 | 57 | 0.0 | 0.0 | 0.00 | 0.00 | 0.00 | 45 | 324.3 |
| 20260506194407 | 65 | 53 | 0.0 | 0.0 | 0.00 | 0.00 | 0.00 | 46 | 324.3 |
| 20260506193901 | 65 | 55 | 0.0 | 0.0 | 0.00 | 0.00 | 0.00 | 46 | 324.3 |
| 20260506193355 | 64 | 56 | 0.0 | 0.0 | 0.00 | 0.00 | 0.00 | 45 | 324.3 |
| 20260506192849 | 65 | 51 | 0.0 | 0.0 | 0.00 | 0.00 | 0.00 | 46 | 324.3 |
| 20260506192343 | 65 | 55 | 0.0 | 0.0 | 0.00 | 0.00 | 0.00 | 44 | 324.3 |
| 20260506191837 | 65 | 57 | 0.0 | 0.0 | 0.00 | 0.00 | 0.00 | 45 | 324.3 |
| 20260506191331 | 65 | 53 | 0.0 | 0.0 | 0.00 | 0.00 | 0.00 | 44 | 324.3 |
| 20260506190825 | 65 | 55 | 0.0 | 0.0 | 0.00 | 0.00 | 0.00 | 43 | 324.2 |
| 20260506190319 | 66 | 52 | 0.0 | 0.0 | 0.00 | 0.00 | 0.00 | 43 | 324.2 |
| 20260506185813 | 66 | 54 | 0.0 | 0.0 | 0.00 | 0.00 | 0.00 | 43 | 324.1 |
| 20260506185307 | 66 | 56 | 0.0 | 0.0 | 0.00 | 0.00 | 0.00 | 44 | 324.1 |
| 20260506184801 | 66 | 53 | 0.0 | 0.0 | 0.00 | 0.00 | 0.00 | 42 | 324.1 |
| 20260506184255 | 66 | 54 | 0.0 | 0.0 | 0.00 | 0.00 | 0.00 | 41 | 324.0 |
| 20260506183749 | 67 | 54 | 0.0 | 0.0 | 0.00 | 0.00 | 0.00 | 42 | 324.1 |
| 20260506183243 | 66 | 53 | 0.0 | 0.0 | 0.00 | 0.00 | 0.00 | 42 | 324.1 |
| 20260506182737 | 66 | 56 | 0.0 | 0.0 | 0.00 | 0.00 | 0.00 | 42 | 324.1 |
| 20260506182231 | 66 | 57 | 0.0 | 0.0 | 0.00 | 0.00 | 0.00 | 43 | 324.1 |
| 20260506181725 | 66 | 55 | 0.0 | 0.0 | 0.00 | 0.00 | 0.00 | 44 | 324.1 |
| 20260506181219 | 66 | 54 | 0.9 | 0.0 | 0.00 | 0.00 | 0.00 | 46 | 324.1 |
| 20260506180713 | 66 | 57 | 0.9 | 0.0 | 0.00 | 0.00 | 0.00 | 48 | 324.0 |
| 20260506180207 | 66 | 55 | 1.7 | 0.0 | 0.00 | 0.00 | 0.00 | 49 | 324.0 |
| 20260506175701 | 66 | 57 | 1.7 | 0.0 | 0.00 | 0.00 | 0.00 | 50 | 323.9 |
| 20260506175155 | 66 | 59 | 0.0 | 0.0 | 0.00 | 0.00 | 0.00 | 51 | 323.8 |
| 20260506174649 | 66 | 60 | 2.6 | 0.0 | 0.00 | 0.00 | 0.00 | 52 | 323.6 |
| 20260506174143 | 67 | 60 | 1.7 | 0.0 | 0.00 | 0.00 | 0.00 | 52 | 323.4 |
| 20260506173637 | 68 | 64 | 0.0 | 0.0 | 0.00 | 0.00 | 0.00 | 53 | 323.3 |
| 20260506173131 | 68 | 68 | 0.0 | 0.0 | 0.00 | 0.00 | 0.00 | 52 | 323.1 |
| 20260506172625 | 69 | 67 | 0.0 | 0.0 | 0.00 | 0.00 | 0.00 | 51 | 322.9 |
| 20260506172119 | 70 | 68 | 0.0 | 0.0 | 0.00 | 0.00 | 0.00 | 50 | 322.8 |
| 20260506171613 | 71 | 72 | 0.0 | 0.0 | 0.00 | 0.00 | 0.00 | 50 | 322.5 |
| 20260506171107 | 71 | 75 | 0.0 | 0.0 | 0.00 | 0.00 | 0.00 | 49 | 322.2 |
| 20260506170601 | 72 | 76 | 0.0 | 0.0 | 0.00 | 0.00 | 0.00 | 48 | 322.0 |
| 20260506170055 | 72 | 85 | 0.0 | 0.0 | 0.00 | 0.00 | 0.00 | 47 | 321.7 |
| 20260506165549 | 73 | 84 | 0.0 | 0.0 | 0.00 | 0.00 | 0.00 | 47 | 321.4 |
| 20260506165043 | 73 | 84 | 0.0 | 0.0 | 0.00 | 0.00 | 0.00 | 46 | 321.2 |
| 20260506164537 | 73 | 93 | 0.0 | 0.0 | 0.00 | 0.00 | 0.00 | 44 | 321.0 |
| 20260506164031 | 74 | 90 | 0.0 | 0.0 | 0.00 | 0.00 | 0.00 | 45 | 321.0 |
| 20260506163525 | 73 | 96 | 0.0 | 0.0 | 0.00 | 0.00 | 0.00 | 44 | 321.0 |
| 20260506163019 | 74 | 94 | 0.9 | 0.0 | 0.00 | 0.00 | 0.00 | 42 | 321.0 |
| 20260506162513 | 74 | 95 | 0.0 | 0.0 | 0.00 | 0.00 | 0.00 | 41 | 321.1 |
| 20260506162007 | 74 | 99 | 0.0 | 10.4 | 0.00 | 0.00 | 0.00 | 40 | 321.2 |
| 20260506161501 | 73 | 99 | 2.6 | 10.4 | 0.00 | 0.00 | 0.00 | 39 | 321.4 |
| 20260506160955 | 73 | 114 | 1.7 | 10.4 | 0.00 | 0.00 | 0.00 | 39 | 321.5 |
| 20260506160449 | 74 | 145 | 2.6 | 10.4 | 0.00 | 0.00 | 0.00 | 39 | 321.8 |
| 20260506155943 | 74 | 194 | 2.6 | 0.0 | 0.00 | 0.00 | 0.00 | 37 | 322.0 |
| 20260506155437 | 74 | 247 | 2.6 | 0.0 | 0.00 | 0.00 | 0.00 | 38 | 322.1 |
| 20260506154931 | 75 | 295 | 0.9 | 10.4 | 0.00 | 0.00 | 0.00 | 40 | 322.3 |
| 20260506154425 | 75 | 322 | 3.5 | 14.8 | 0.00 | 0.00 | 0.00 | 37 | 322.4 |
| 20260506153919 | 75 | 341 | 2.6 | 14.8 | 0.00 | 0.00 | 0.00 | 37 | 322.4 |
| 20260506153413 | 75 | 357 | 1.7 | 0.0 | 0.00 | 0.00 | 0.00 | 37 | 322.5 |
| 20260506152907 | 75 | 356 | 1.7 | 0.0 | 0.00 | 0.00 | 0.00 | 36 | 322.5 |
| 20260506152401 | 75 | 29 | 1.7 | 0.0 | 0.00 | 0.00 | 0.00 | 35 | 322.5 |
| 20260506151855 | 75 | 30 | 1.7 | 10.4 | 0.00 | 0.00 | 0.00 | 35 | 322.6 |
| 20260506151349 | 75 | 54 | 2.6 | 10.4 | 0.00 | 0.00 | 0.00 | 36 | 322.6 |
| 20260506150843 | 75 | 70 | 3.5 | 10.4 | 0.00 | 0.00 | 0.00 | 33 | 322.6 |
| 20260506150337 | 75 | 88 | 3.5 | 13.0 | 0.00 | 0.00 | 0.00 | 34 | 322.5 |
| 20260506145831 | 75 | 109 | 2.6 | 13.0 | 0.00 | 0.00 | 0.00 | 35 | 322.5 |
| 20260506145325 | 76 | 95 | 2.6 | 0.0 | 0.00 | 0.00 | 0.00 | 35 | 322.5 |
| 20260506144819 | 76 | 103 | 3.5 | 0.0 | 0.00 | 0.00 | 0.00 | 36 | 322.5 |
| 20260506144313 | 76 | 155 | 2.6 | 0.0 | 0.00 | 0.00 | 0.00 | 37 | 322.4 |
| 20260506143807 | 76 | 172 | 2.6 | 0.0 | 0.00 | 0.00 | 0.00 | 35 | 322.4 |
| 20260506143301 | 76 | 191 | 2.6 | 0.0 | 0.00 | 0.00 | 0.00 | 36 | 322.4 |
| 20260506142755 | 76 | 201 | 3.5 | 0.0 | 0.00 | 0.00 | 0.00 | 35 | 322.4 |
| 20260506142249 | 77 | 203 | 1.7 | 0.0 | 0.00 | 0.00 | 0.00 | 37 | 322.4 |
| 20260506141743 | 77 | 233 | 2.6 | 17.4 | 0.00 | 0.00 | 0.00 | 37 | 322.4 |
| 20260506141237 | 77 | 245 | 3.5 | 17.4 | 0.00 | 0.00 | 0.00 | 38 | 322.4 |
| 20260506140731 | 77 | 259 | 1.7 | 0.0 | 0.00 | 0.00 | 0.00 | 38 | 322.4 |
| 20260506140225 | 77 | 272 | 2.6 | 10.4 | 0.00 | 0.00 | 0.00 | 37 | 322.4 |
| 20260506135719 | 77 | 287 | 1.7 | 0.0 | 0.00 | 0.00 | 0.00 | 40 | 322.4 |
| 20260506135213 | 77 | 301 | 2.6 | 0.0 | 0.00 | 0.00 | 0.00 | 39 | 322.4 |
| 20260506134707 | 77 | 319 | 2.6 | 0.0 | 0.00 | 0.00 | 0.00 | 38 | 322.4 |
| 20260506134201 | 77 | 333 | 2.6 | 0.0 | 0.00 | 0.00 | 0.00 | 40 | 322.4 |
| 20260506133655 | 77 | 338 | 1.7 | 0.0 | 0.00 | 0.00 | 0.00 | 41 | 322.4 |